[[{"header":{"parameterUnit":"m.s-1","parameterCategory":1,"la1":30.2991,"la2":30.254,"lo1":-89.0895,"lo2":-89.0444,"dy":0.0017,"dx":0.0017,"nx":28,"ny":28,"refTime":"2024-09-30T03:00:00:Z","depth":0,"parameterNumber":2,"parameterNumberName":"U-component_of_WINDS"},"data":[0,0,0,0,0,0,0,0,0,0,0,0,0,0,0,0,0,0,0,0,0,0,0,0,0,0,0,0,0,0,0,0,0,0,0,0,0,0,0,0,0,0,0,0,0,0,0,0,0,0,0,0,0,0,0,0,0,0,-0.0831,-0.083,0,-0.0811,-0.0811,-0.0811,-0.0784,-0.0784,-0.0783,-0.0783,-0.0764,-0.0763,-0.0763,0,0,0,0,0,0,0,0,0,0,0,0,0,-0.0842,-0.0842,-0.0831,-0.083,-0.083,-0.0811,-0.0811,-0.0811,-0.0784,-0.0784,-0.0783,-0.0782,-0.0764,-0.0763,-0.0763,0,0,0,0,0,0,0,0,0,0,0,0,0,-0.0832,-0.0842,-0.0831,-0.0814,-0.0813,-0.0811,-0.0811,-0.0811,-0.0784,-0.0784,-0.0783,-0.0782,-0.0764,-0.0763,-0.0763,-0.0777,0,0,-0.0763,-0.0763,0,0,0,0,0,0,0,0,-0.0832,-0.0831,-0.0817,-0.0816,-0.0814,-0.0799,-0.0808,-0.0799,-0.0784,-0.0795,-0.0783,-0.0782,-0.0776,-0.0775,-0.0773,-0.0776,-0.0775,-0.0763,-0.0763,-0.0763,-0.0763,0,0,0,0,0,0,0,-0.0833,-0.0832,-0.0823,-0.0817,-0.0815,-0.0808,-0.0805,-0.0806,-0.079,-0.0794,-0.0792,-0.079,-0.0775,-0.0773,-0.0772,-0.0774,-0.0763,-0.0763,-0.0763,-0.0763,-0.0784,-0.0784,0,0,0,0,0,0,-0.0836,-0.0833,-0.0824,-0.0822,-0.0821,-0.0808,-0.0805,-0.0805,-0.079,-0.0787,-0.0791,-0.0789,-0.0774,-0.0772,-0.0771,-0.0784,-0.0763,-0.0763,-0.0763,-0.0783,-0.0784,-0.0785,0,0,0,0,0,0,-0.0837,-0.0836,-0.0824,-0.0827,-0.0825,-0.0808,-0.0808,-0.0805,-0.0803,-0.0787,-0.0784,-0.0792,-0.0773,-0.0772,-0.0775,-0.0783,-0.0763,-0.0763,-0.0782,-0.0783,-0.0784,-0.081,0,0,0,0,0,0,-0.0837,-0.0836,-0.0841,-0.0827,-0.0825,-0.0829,-0.0808,-0.0805,-0.0802,-0.08,-0.0787,-0.0785,-0.0772,-0.0775,-0.0775,-0.0782,-0.0763,-0.0782,-0.0783,-0.0784,-0.0809,-0.0812,-0.0815,0,0,0,0,0,-0.0838,-0.085,-0.0842,-0.0841,-0.0831,-0.0829,-0.0828,-0.0813,-0.0803,-0.0808,-0.0797,-0.0785,-0.0782,-0.0776,-0.0775,-0.0783,-0.0781,-0.0782,-0.0784,-0.0807,-0.0811,-0.0815,0,0,0,0,0,0,-0.0867,-0.0848,-0.0839,-0.0847,-0.084,-0.0825,-0.0831,-0.0819,-0.0814,-0.0812,-0.0794,-0.0792,-0.0796,-0.079,-0.0783,-0.0793,-0.0779,-0.0781,-0.0797,-0.0801,-0.0804,-0.0806,-0.0762,0,0,0,0,0,-0.0874,-0.0874,-0.0858,-0.0867,-0.0864,-0.0848,-0.0846,-0.0835,-0.0827,-0.0824,-0.0814,-0.0806,-0.0803,-0.0802,-0.0798,-0.0807,-0.0803,-0.0812,-0.0815,-0.0818,-0.0819,-0.0821,-0.0824,-0.0789,-0.0789,-0.0789,0,0,-0.089,-0.0879,-0.0881,-0.0873,-0.0866,-0.0865,-0.0845,-0.0847,-0.0846,-0.0824,-0.0826,-0.0818,-0.0808,-0.0814,-0.0815,-0.0808,-0.0828,-0.082,-0.0822,-0.0822,-0.0823,-0.0826,-0.0829,-0.079,-0.079,-0.079,0,0,-0.0918,-0.091,-0.0916,-0.0909,-0.0898,-0.0887,-0.0888,-0.0874,-0.0868,-0.0869,-0.0852,-0.085,-0.0846,-0.0839,-0.0835,-0.0856,-0.0844,-0.0856,-0.0872,-0.0874,-0.0877,-0.0879,-0.0886,-0.0888,-0.0857,-0.0857,-0.0857,0,-0.0938,-0.0938,-0.0921,-0.0922,-0.0918,-0.0897,-0.0902,-0.0896,-0.0885,-0.0882,-0.0874,-0.0866,-0.0858,-0.086,-0.0865,-0.0863,-0.0863,-0.0858,-0.0878,-0.088,-0.0882,-0.0888,-0.089,-0.0859,-0.0859,-0.0858,-0.0858,0,-0.0963,-0.0962,-0.0968,-0.0956,-0.0953,-0.0956,-0.0939,-0.0937,-0.0926,-0.0915,-0.0915,-0.0904,-0.0897,-0.0897,-0.0887,-0.0897,-0.0892,-0.0881,-0.0867,-0.0887,-0.0892,-0.0894,-0.0861,-0.086,-0.086,-0.0859,0,0,-0.1011,-0.0987,-0.099,-0.0983,-0.0968,-0.0967,-0.0968,-0.0961,-0.0959,-0.0951,-0.0951,-0.0946,-0.0935,-0.093,-0.0918,-0.092,-0.0935,-0.0908,-0.0907,-0.0913,-0.0944,-0.0952,-0.0955,-0.0926,-0.0927,-0.0927,-0.0944,0,-0.1035,-0.1036,-0.1019,-0.1025,-0.1023,-0.1001,-0.1002,-0.0992,-0.0982,-0.0978,-0.0966,-0.0962,-0.0949,-0.0945,-0.0946,-0.0933,-0.0941,-0.0932,-0.0925,-0.0925,-0.0928,-0.0958,-0.0967,-0.0983,-0.0946,-0.0946,-0.0947,0,-0.1064,-0.1057,-0.1061,-0.1044,-0.1042,-0.1043,-0.1033,-0.103,-0.1018,-0.101,-0.1003,-0.0989,-0.0987,-0.0973,-0.097,-0.0964,-0.096,-0.0953,-0.0953,-0.0952,-0.0937,-0.0956,-0.0989,-0.0991,-0.095,-0.095,-0.0949,0,-0.1097,-0.1088,-0.1089,-0.1084,-0.1064,-0.1065,-0.1056,-0.1043,-0.1039,-0.103,-0.1026,-0.1018,-0.1013,-0.1006,-0.0989,-0.0981,-0.0987,-0.0972,-0.0979,-0.0979,-0.0982,-0.0982,-0.1013,-0.098,-0.098,-0.098,-0.098,0,-0.1126,-0.113,-0.1103,-0.1104,-0.1106,-0.1086,-0.1089,-0.1079,-0.1066,-0.1064,-0.1045,-0.1043,-0.102,-0.1015,-0.1002,-0.1,-0.0998,-0.0991,-0.0987,-0.0992,-0.0993,-0.0989,-0.0988,-0.098,-0.098,-0.098,-0.098,0,-0.1164,-0.1146,-0.1146,-0.1126,-0.1121,-0.1123,-0.1106,-0.1105,-0.1092,-0.1088,-0.1086,-0.1066,-0.1058,-0.104,-0.1029,-0.1019,-0.1021,-0.1015,-0.1025,-0.1023,-0.103,-0.1029,-0.106,-0.1062,-0.1028,-0.1029,-0.1029,0,-0.1183,-0.1185,-0.1165,-0.1161,-0.1153,-0.1148,-0.1143,-0.1122,-0.1118,-0.1102,-0.1102,-0.1093,-0.1085,-0.1074,-0.1057,-0.1047,-0.104,-0.1051,-0.1039,-0.1043,-0.1039,-0.1039,-0.1038,-0.1055,-0.1055,-0.1055,-0.1056,0,-0.1219,-0.121,-0.1203,-0.1192,-0.1186,-0.1177,-0.1167,-0.1165,-0.1142,-0.1137,-0.1129,-0.1122,-0.1109,-0.1099,-0.1086,-0.1076,-0.1062,-0.1059,-0.106,-0.1066,-0.1071,-0.1067,-0.1032,-0.1059,-0.1059,-0.1059,-0.1058,-0.1058,-0.1248,-0.1247,-0.1232,-0.1224,-0.1214,-0.1204,-0.1202,-0.1187,-0.118,-0.1168,-0.1156,-0.1148,-0.1133,-0.1114,-0.1104,-0.1097,-0.109,-0.1092,-0.1092,-0.1093,-0.1094,-0.1072,-0.1095,-0.1095,-0.1095,-0.1095,-0.1095,0,-0.1282,-0.127,-0.1263,-0.1249,-0.1242,-0.1228,-0.1215,-0.121,-0.1204,-0.1191,-0.1182,-0.1171,-0.1161,-0.1143,-0.1131,-0.1128,-0.1121,-0.1126,-0.1126,-0.1123,-0.1102,-0.1102,-0.1132,-0.1132,-0.1132,-0.1132,-0.1132,-0.1132,-0.1299,-0.1297,-0.1285,-0.1277,-0.1265,-0.1257,-0.1251,-0.1241,-0.123,-0.1219,-0.121,-0.1198,-0.1182,-0.1168,-0.1158,-0.1153,-0.1149,-0.1155,-0.1148,-0.1129,-0.1125,-0.1122,-0.1122,-0.1155,-0.1155,-0.117,-0.117,-0.117]},{"header":{"parameterUnit":"m.s-1","parameterCategory":1,"la1":30.2991,"la2":30.254,"lo1":-89.0895,"lo2":-89.0444,"dy":0.0017,"dx":0.0017,"nx":28,"ny":28,"refTime":"2024-09-30T03:00:00:Z","depth":0,"parameterNumber":3,"parameterNumberName":"V-component_of_WINDS"},"data":[0,0,0,0,0,0,0,0,0,0,0,0,0,0,0,0,0,0,0,0,0,0,0,0,0,0,0,0,0,0,0,0,0,0,0,0,0,0,0,0,0,0,0,0,0,0,0,0,0,0,0,0,0,0,0,0,0,0,-2.5605,-2.5606,0,-2.5626,-2.5626,-2.5626,-2.559,-2.5589,-2.5587,-2.5586,-2.5605,-2.5607,-2.5609,0,0,0,0,0,0,0,0,0,0,0,0,0,-2.5532,-2.5534,-2.5605,-2.5606,-2.5606,-2.5626,-2.5626,-2.5626,-2.559,-2.5588,-2.5587,-2.5586,-2.5605,-2.5607,-2.5609,0,0,0,0,0,0,0,0,0,0,0,0,0,-2.556,-2.5534,-2.5605,-2.559,-2.5589,-2.5626,-2.5626,-2.5626,-2.559,-2.5588,-2.5587,-2.5585,-2.5604,-2.5606,-2.5609,-2.5661,0,0,-2.5616,-2.5618,0,0,0,0,0,0,0,0,-2.5558,-2.5562,-2.5592,-2.5591,-2.559,-2.5603,-2.5607,-2.5638,-2.5591,-2.559,-2.5586,-2.5584,-2.5606,-2.5608,-2.5616,-2.5662,-2.5663,-2.5617,-2.5618,-2.5619,-2.562,0,0,0,0,0,0,0,-2.5556,-2.5561,-2.5613,-2.5593,-2.5591,-2.5582,-2.5583,-2.5613,-2.5608,-2.559,-2.5587,-2.559,-2.5605,-2.5614,-2.5616,-2.5663,-2.5617,-2.5619,-2.562,-2.5621,-2.5751,-2.5753,0,0,0,0,0,0,-2.5557,-2.556,-2.5613,-2.5614,-2.5569,-2.5584,-2.5586,-2.5601,-2.5607,-2.5607,-2.5592,-2.5588,-2.561,-2.5613,-2.5617,-2.5677,-2.5619,-2.5622,-2.5623,-2.5749,-2.5752,-2.5754,0,0,0,0,0,0,-2.5555,-2.5562,-2.5612,-2.5586,-2.5592,-2.5588,-2.5604,-2.5602,-2.5611,-2.5609,-2.5608,-2.5602,-2.5609,-2.5613,-2.565,-2.5677,-2.5623,-2.5625,-2.5747,-2.575,-2.5753,-2.5799,0,0,0,0,0,0,-2.5553,-2.5561,-2.5582,-2.5587,-2.5593,-2.5646,-2.5606,-2.5604,-2.5615,-2.5611,-2.5618,-2.5617,-2.5608,-2.5647,-2.5653,-2.568,-2.5627,-2.5744,-2.5748,-2.5752,-2.5795,-2.5803,-2.581,0,0,0,0,0,-2.5551,-2.5594,-2.5583,-2.5589,-2.5619,-2.5647,-2.5651,-2.564,-2.5618,-2.5638,-2.5636,-2.5617,-2.5674,-2.5651,-2.5657,-2.5685,-2.5743,-2.5747,-2.5751,-2.5791,-2.5801,-2.581,0,0,0,0,0,0,-2.5591,-2.5594,-2.5582,-2.5628,-2.5638,-2.5641,-2.5666,-2.5651,-2.5667,-2.5662,-2.5647,-2.5649,-2.5688,-2.5691,-2.5665,-2.5735,-2.5704,-2.571,-2.5732,-2.5742,-2.5749,-2.5748,-2.5629,0,0,0,0,0,-2.5605,-2.5629,-2.563,-2.567,-2.5676,-2.567,-2.5682,-2.5673,-2.5682,-2.5686,-2.5687,-2.5696,-2.5716,-2.5729,-2.5747,-2.5795,-2.5796,-2.5818,-2.5825,-2.5832,-2.5837,-2.5861,-2.5871,-2.5768,-2.5768,-2.5768,0,0,-2.5635,-2.5639,-2.5655,-2.5679,-2.5685,-2.5709,-2.5674,-2.5701,-2.5718,-2.569,-2.5724,-2.5726,-2.5735,-2.5777,-2.5796,-2.578,-2.5865,-2.5837,-2.5842,-2.5844,-2.5867,-2.5877,-2.5885,-2.5771,-2.5771,-2.577,0,0,-2.57,-2.5707,-2.5741,-2.5748,-2.5758,-2.5754,-2.5763,-2.5768,-2.5768,-2.5803,-2.5782,-2.5802,-2.5837,-2.5844,-2.5852,-2.592,-2.5903,-2.5927,-2.5966,-2.599,-2.5998,-2.6005,-2.6029,-2.6037,-2.5932,-2.5932,-2.5932,0,-2.5735,-2.5772,-2.576,-2.5788,-2.5799,-2.5775,-2.5809,-2.5816,-2.5832,-2.5839,-2.5822,-2.5864,-2.5869,-2.5912,-2.5929,-2.5936,-2.5944,-2.5925,-2.5998,-2.6005,-2.6011,-2.6034,-2.6043,-2.5935,-2.5934,-2.5934,-2.5934,0,-2.5814,-2.5839,-2.5865,-2.5881,-2.5895,-2.5926,-2.5918,-2.5933,-2.5923,-2.592,-2.5956,-2.596,-2.5978,-2.5988,-2.5978,-2.603,-2.602,-2.6001,-2.5969,-2.6024,-2.6045,-2.6053,-2.5939,-2.5938,-2.5937,-2.5936,0,0,-2.5905,-2.5914,-2.5924,-2.5931,-2.594,-2.5959,-2.5989,-2.6007,-2.602,-2.6031,-2.6055,-2.6085,-2.6067,-2.6076,-2.6067,-2.6088,-2.6141,-2.6066,-2.6066,-2.6079,-2.6197,-2.6211,-2.6221,-2.613,-2.6132,-2.6133,-2.6196,0,-2.5969,-2.6021,-2.6011,-2.6061,-2.6084,-2.6061,-2.6087,-2.6095,-2.6094,-2.6112,-2.611,-2.6131,-2.6107,-2.6112,-2.6132,-2.613,-2.6164,-2.6126,-2.6151,-2.6152,-2.6148,-2.6232,-2.6247,-2.6306,-2.6204,-2.6206,-2.6207,0,-2.6052,-2.6067,-2.6119,-2.6125,-2.6134,-2.6157,-2.6173,-2.6191,-2.62,-2.6197,-2.6207,-2.6194,-2.6222,-2.6191,-2.623,-2.6204,-2.6213,-2.6214,-2.6216,-2.6217,-2.6182,-2.6234,-2.6325,-2.6334,-2.6219,-2.6218,-2.6217,0,-2.6112,-2.6145,-2.618,-2.6187,-2.6195,-2.6211,-2.6215,-2.6222,-2.6234,-2.6247,-2.6254,-2.6271,-2.628,-2.6293,-2.6284,-2.6262,-2.6324,-2.6292,-2.6321,-2.6322,-2.6335,-2.6334,-2.6427,-2.6343,-2.6343,-2.6342,-2.6342,0,-2.6184,-2.6217,-2.6207,-2.6229,-2.6264,-2.6253,-2.6288,-2.6289,-2.6296,-2.6317,-2.6298,-2.6318,-2.6306,-2.6324,-2.6318,-2.635,-2.6354,-2.6352,-2.635,-2.6353,-2.6353,-2.6359,-2.6354,-2.6345,-2.6344,-2.6344,-2.6343,0,-2.6257,-2.6252,-2.6289,-2.6293,-2.6295,-2.6321,-2.6324,-2.6344,-2.6341,-2.6368,-2.6373,-2.6369,-2.639,-2.6383,-2.6405,-2.64,-2.6441,-2.6434,-2.6438,-2.6436,-2.6466,-2.6463,-2.6565,-2.6577,-2.6486,-2.6487,-2.6488,0,-2.6303,-2.6327,-2.6335,-2.6348,-2.6353,-2.6374,-2.6386,-2.6375,-2.6388,-2.64,-2.6418,-2.6437,-2.6452,-2.6487,-2.6485,-2.6502,-2.6494,-2.6529,-2.6496,-2.6499,-2.6493,-2.6491,-2.6493,-2.6535,-2.6536,-2.6537,-2.6537,0,-2.6385,-2.6381,-2.6399,-2.6416,-2.6431,-2.6444,-2.6455,-2.6466,-2.6457,-2.6472,-2.6493,-2.6505,-2.6528,-2.6547,-2.6562,-2.6565,-2.6549,-2.6548,-2.6555,-2.6559,-2.656,-2.6558,-2.6455,-2.6545,-2.6544,-2.6544,-2.6543,-2.6543,-2.6445,-2.6465,-2.6474,-2.6494,-2.6501,-2.6512,-2.6531,-2.6531,-2.6548,-2.6567,-2.6559,-2.6584,-2.6591,-2.661,-2.6615,-2.6633,-2.662,-2.6631,-2.6634,-2.6636,-2.664,-2.6558,-2.6636,-2.6636,-2.6636,-2.6636,-2.6636,0,-2.6525,-2.6529,-2.6548,-2.6565,-2.6581,-2.6565,-2.6577,-2.6591,-2.6613,-2.6621,-2.6636,-2.6661,-2.6679,-2.6679,-2.6696,-2.6711,-2.6704,-2.6715,-2.6714,-2.6714,-2.6651,-2.6643,-2.6721,-2.6721,-2.6721,-2.6721,-2.6721,-2.6721,-2.6569,-2.6602,-2.66,-2.6636,-2.664,-2.6664,-2.6672,-2.6682,-2.6688,-2.6716,-2.6732,-2.6732,-2.6737,-2.6754,-2.677,-2.6769,-2.6776,-2.679,-2.6787,-2.6727,-2.6719,-2.6711,-2.6703,-2.6792,-2.6792,-2.6848,-2.6848,-2.6849]}]]